Location: *
(43.4667°N, 11.6833°E)
Time: 16:50:10
(UTC+00:00)

Meteor 1-20 Rocket - Pass Details

Date: 19 July 2019
Orbit: 819 x 892 km, 81.2° (Epoch: 20 August)

Event Time Altitude Azimuth Distance (km) Brightness Sun altitude
Exits shadow 23:15:57 70° 189° (S) 938 4.1 -25.8°
Maximum altitude 23:16:42 90° 74° (ENE) 889 4.2 -25.8°
Drops below altitude 10° 23:22:34 10° 10° (N) 2,565 7.7 -25.8°
Sets 23:25:02 0° 11° (N) 3,512 8.7 -25.8°
